Theta_e
314 316 314 313 313 312 311 311 312 315 314 314 316 313 314 317 315 315 316 314 315 315 315 316 315 315 314 315 316 314 313 315 314 314 316 318 318 318 319 320 321 322 319 316 317 321 323 325 327 329 329 329 330 331 331 332 332 332 333 333 332 331 332 332 332 333 332 332 332 331 331 331 331 332 332 332 332 332 331 330 331 330 330 329 330 331
314 316 315 312 313 313 312 312 312 313 314 314 316 314 315 317 316 315 315 313 314 315 315 316 315 315 315 315 316 315 313 314 315 315 316 317 318 319 320 321 322 321 321 323 320 319 321 324 325 327 328 328 329 331 331 331 331 331 331 332 332 331 331 332 331 333 333 332 332 331 331 331 332 332 332 332 331 331 331 331 332 332 331 331 331 331
314 314 314 312 313 314 313 313 312 313 315 315 316 316 316 318 316 315 315 314 313 314 315 317 317 315 316 316 316 316 314 314 315 315 316 317 316 318 319 320 322 320 325 332 325 319 319 321 324 325 326 326 326 328 329 329 330 330 330 330 331 330 330 331 331 332 332 331 331 331 331 331 332 331 331 331 331 331 331 330 331 330 330 330 331 331
315 314 314 314 313 314 314 313 313 314 315 317 317 315 317 320 317 315 316 315 313 313 315 318 318 318 316 317 317 317 316 315 316 316 317 318 318 318 318 320 321 320 326 331 326 320 317 318 321 322 324 325 325 326 327 328 329 329 330 329 329 330 329 329 330 331 331 331 331 331 331 331 331 330 329 329 329 330 331 330 330 329 328 329 330 330
315 314 316 316 314 314 315 314 316 315 314 318 319 317 319 321 318 318 317 314 313 315 316 315 315 317 315 315 316 316 317 317 316 317 317 319 321 321 323 325 325 322 324 327 326 322 316 315 317 317 320 322 324 325 325 325 326 328 329 329 329 329 329 329 329 331 331 331 331 330 330 330 329 329 329 329 329 329 330 330 330 330 329 328 329 328
315 313 314 317 315 316 316 315 318 318 314 315 320 320 320 320 320 321 318 315 315 318 319 315 314 318 318 315 315 314 316 316 316 318 316 318 324 326 327 328 330 329 327 327 326 322 316 314 315 315 315 317 319 322 323 323 324 326 327 328 329 329 329 328 328 329 330 330 330 330 330 329 328 328 329 329 329 329 329 329 330 330 329 329 328 328
315 311 313 318 318 319 319 316 319 321 314 312 320 324 321 323 324 323 321 319 317 318 319 317 316 319 318 315 317 317 317 318 317 319 319 319 323 325 324 324 326 328 328 328 326 323 318 315 314 315 314 314 314 316 318 321 323 324 326 327 328 329 328 328 327 327 328 329 329 329 330 329 328 327 327 328 328 327 327 327 328 329 329 328 328 327
313 311 316 319 319 321 320 316 319 320 314 315 325 328 323 325 327 326 324 320 319 319 318 317 317 318 318 318 318 320 319 319 318 319 321 320 319 320 321 321 321 322 325 327 328 325 319 315 314 314 314 313 313 313 314 318 321 323 324 326 327 328 328 327 327 327 327 327 327 328 328 327 327 327 326 326 326 326 326 326 327 327 327 326 326 326
315 315 318 320 319 320 318 320 324 319 317 322 327 327 324 326 328 326 324 321 318 319 319 320 318 317 320 319 318 321 317 317 318 318 319 319 317 317 318 320 321 322 324 326 329 326 318 315 315 314 314 313 313 313 313 315 319 322 323 325 326 327 327 327 327 326 326 326 326 326 325 325 326 325 325 325 325 324 324 324 325 325 325 325 325 325
317 315 318 320 319 319 320 324 329 323 318 323 324 325 325 327 326 323 323 321 318 319 321 323 319 317 320 319 316 318 317 318 319 316 317 319 318 318 320 323 323 323 325 325 325 321 315 314 315 314 314 313 313 313 313 314 317 321 322 324 326 326 327 326 326 326 326 326 325 325 324 323 324 325 324 324 325 324 324 324 324 325 325 325 324 324
313 312 316 321 317 317 319 318 323 324 322 323 324 324 323 322 322 321 321 319 318 321 323 323 320 316 319 320 316 317 318 319 319 315 319 322 321 323 325 326 324 324 327 326 322 316 314 315 314 314 314 313 313 314 314 315 316 318 320 323 325 325 325 325 325 325 325 325 324 324 322 322 323 324 324 324 324 324 324 323 324 324 323 323 322 321
313 313 316 319 314 315 318 316 319 321 320 324 325 323 321 319 319 318 318 317 320 323 320 320 322 319 319 318 315 317 318 317 317 316 321 324 323 326 327 325 322 322 324 326 323 318 317 316 314 314 315 314 315 315 315 315 315 317 320 322 323 324 324 324 324 324 324 323 323 322 322 323 323 323 324 324 323 323 323 323 322 322 321 321 320 320
318 316 316 317 313 314 319 318 318 317 319 324 322 319 320 320 319 319 320 320 321 321 316 314 319 321 320 316 314 317 315 315 317 316 320 323 323 326 326 324 323 322 321 323 324 323 322 317 313 313 316 316 316 316 316 316 316 318 321 321 322 323 323 323 323 323 322 321 322 322 322 323 323 323 323 322 322 322 321 321 321 321 321 321 321 320
321 319 317 317 315 315 319 317 316 317 317 320 319 319 321 321 318 319 320 321 320 318 315 314 317 320 319 316 316 316 313 316 318 317 322 322 322 326 326 323 324 323 321 322 325 327 325 317 312 313 316 315 315 316 318 318 318 319 320 321 322 322 322 322 321 321 320 319 321 322 322 322 323 323 322 321 321 321 321 321 320 320 321 321 321 320
321 320 317 318 318 317 319 319 320 319 317 320 322 320 321 321 320 319 320 323 324 319 314 314 318 321 320 317 318 317 316 318 318 320 323 322 321 324 323 320 321 321 323 324 326 327 324 316 313 315 316 315 315 317 318 318 319 319 319 320 321 321 321 320 319 319 318 319 321 322 322 322 323 323 322 321 321 321 322 322 321 321 321 320 320 319
317 321 318 318 319 318 319 321 323 318 315 320 324 322 321 322 324 323 319 321 325 322 318 317 321 323 320 318 318 317 320 320 318 320 320 320 321 321 321 321 321 321 324 326 326 327 323 317 316 317 317 316 316 317 318 318 318 319 319 320 320 320 320 319 318 318 318 319 320 322 322 322 322 322 322 322 321 322 322 321 321 320 320 319 319 318
317 321 318 316 318 317 317 319 321 320 317 318 321 321 319 322 327 324 317 316 317 319 321 320 320 319 315 316 318 316 319 319 319 321 319 318 319 320 323 324 323 324 327 328 327 327 323 318 318 319 318 318 318 318 318 318 319 319 319 320 320 319 319 318 318 319 319 319 320 321 321 321 321 321 321 321 321 320 320 320 319 318 318 317 317 316
318 320 317 317 318 315 314 318 320 319 320 319 320 320 317 319 324 320 316 317 316 315 318 319 318 316 313 317 321 315 316 318 319 320 318 317 318 320 324 325 325 328 329 328 327 326 321 317 317 319 319 319 318 318 318 318 319 319 320 320 319 319 319 319 319 320 320 320 320 320 321 321 321 320 319 319 319 318 318 317 316 315 314 314 314 314
321 322 317 317 318 315 315 319 318 316 317 318 319 320 318 319 321 317 314 319 320 315 316 319 318 316 315 316 317 315 317 319 318 319 318 318 320 322 323 324 326 328 328 326 326 326 321 316 316 318 318 318 318 318 318 318 319 320 320 320 319 319 319 319 320 320 320 320 320 320 320 320 320 319 318 317 317 316 315 313 313 312 312 312 312 312
323 325 321 316 316 316 316 317 317 316 316 316 317 317 317 318 320 320 316 318 321 318 316 319 318 321 323 318 314 316 318 317 316 318 320 318 320 321 322 324 328 328 327 326 325 326 322 316 315 316 316 317 318 318 318 319 319 320 320 320 319 319 319 319 320 320 319 319 319 319 319 318 318 317 316 315 314 313 313 312 312 311 311 311 311 311
320 324 324 317 315 317 317 317 318 317 314 315 316 315 315 316 317 320 319 318 320 318 317 317 316 321 325 319 315 315 314 318 319 321 324 321 320 321 322 326 329 326 325 325 324 325 321 314 313 315 315 315 316 316 317 318 318 319 319 319 318 318 318 318 318 318 318 318 318 317 317 316 316 315 314 313 312 312 311 311 311 311 311 310 310 310
318 320 322 317 316 318 318 318 318 318 317 316 315 314 315 316 316 318 319 319 317 317 319 317 316 323 323 316 316 315 315 323 324 322 325 322 320 324 326 328 328 324 324 324 323 325 320 313 312 313 313 313 313 314 315 316 316 317 318 318 317 317 318 317 317 317 317 317 316 316 315 315 314 313 313 312 311 311 310 310 310 310 310 309 309 309
322 321 319 317 317 317 317 316 315 316 320 319 316 317 316 314 316 317 319 321 317 315 316 315 316 323 324 320 321 322 325 327 323 320 322 320 319 324 326 326 325 323 323 323 324 324 317 311 311 312 311 311 312 312 313 314 315 315 316 316 316 316 316 316 316 316 315 315 314 314 313 313 312 312 311 311 311 310 310 309 309 309 308 308 308 308
322 322 320 318 317 317 316 316 315 317 320 319 317 320 318 314 315 317 320 321 320 318 316 315 316 319 324 327 324 322 324 324 320 318 320 320 318 320 321 323 324 324 323 323 324 322 314 310 310 310 309 310 310 311 312 312 313 314 314 314 314 315 314 314 314 313 313 313 312 312 312 312 311 311 311 310 310 309 309 309 308 308 308 307 308 307
318 320 320 320 320 320 319 318 317 318 318 319 318 318 317 318 318 317 318 317 319 323 321 318 318 317 321 325 320 318 320 321 319 317 316 318 320 319 320 321 321 322 323 323 323 322 318 314 311 308 308 309 309 309 310 311 312 312 312 313 313 313 313 313 312 312 312 312 311 312 311 311 311 310 309 309 309 308 308 308 308 307 307 307 307 307
317 319 319 320 319 320 320 319 318 318 317 318 321 319 318 322 319 316 317 317 319 324 322 319 318 316 316 317 315 317 320 319 318 316 314 316 319 319 321 322 321 321 323 323 323 323 321 316 311 308 308 309 308 309 309 310 311 311 311 312 312 312 312 311 311 311 311 311 311 311 310 310 309 309 308 308 308 308 307 307 307 307 306 306 306 306
317 319 316 316 316 316 315 315 318 320 318 317 320 319 318 320 319 316 318 318 318 321 322 321 318 314 314 314 314 318 320 318 318 318 316 318 318 318 322 326 323 322 323 323 322 321 319 317 313 309 308 309 308 308 309 309 309 310 310 310 310 311 311 310 310 310 310 311 310 310 309 308 308 308 308 308 307 307 307 306 306 306 306 306 305 304
318 318 316 316 316 315 314 317 320 320 318 317 318 318 318 318 320 320 318 318 317 318 319 320 319 317 314 314 315 318 319 318 318 317 318 320 320 319 323 326 324 321 322 322 321 320 319 319 317 310 307 309 309 308 308 308 308 309 309 309 309 309 309 309 309 309 310 310 309 308 307 307 307 307 307 307 306 306 306 305 305 305 305 305 304 303
317 317 317 317 317 317 316 321 324 320 317 317 317 317 318 318 319 320 318 317 318 318 316 316 318 318 314 313 315 317 318 317 317 318 320 323 326 324 323 325 323 322 322 321 320 319 318 318 317 311 308 309 308 308 308 308 308 308 307 308 308 307 307 307 308 309 309 308 308 307 306 305 305 306 306 305 305 305 304 304 304 305 304 304 303 303
316 315 316 317 317 318 318 321 325 321 318 319 317 316 317 317 318 318 317 316 317 318 316 315 317 316 314 314 314 316 318 318 318 321 321 324 329 327 324 324 324 322 322 320 318 318 316 316 316 310 307 308 308 307 308 307 307 307 306 306 306 306 306 306 307 308 307 307 306 305 305 304 304 304 304 304 303 303 303 304 304 304 304 303 302 302
316 317 318 317 317 318 319 323 325 323 321 320 319 318 317 317 317 317 316 316 316 316 316 315 317 316 314 314 315 316 318 318 319 321 319 321 327 326 325 325 325 324 322 318 317 316 315 317 316 311 307 307 308 307 307 307 306 306 305 305 304 304 305 305 306 306 306 305 304 304 303 303 303 303 302 302 303 303 303 303 304 303 302 302 301 301
316 318 319 319 319 318 320 324 324 322 320 319 320 321 319 318 317 316 315 315 315 316 316 317 317 315 313 314 316 316 318 319 319 319 318 322 326 326 325 327 327 326 323 319 316 316 315 317 318 314 309 308 308 307 307 306 306 305 304 304 303 304 304 304 304 304 304 303 303 302 302 302 302 301 301 302 302 302 302 303 303 302 301 301 300 300
315 317 320 320 319 317 319 323 322 319 317 318 320 321 319 317 317 316 316 316 315 316 317 316 315 314 313 314 315 316 318 319 318 317 318 322 325 325 325 327 329 327 324 321 318 317 317 315 313 311 310 309 308 307 306 306 305 304 304 303 303 303 302 302 302 302 301 301 300 300 300 301 301 301 301 301 301 301 302 302 301 300 300 300 299 299
314 316 319 319 316 317 319 320 319 318 316 316 316 317 319 318 317 317 317 316 316 315 315 314 314 313 313 316 317 317 318 319 317 317 317 318 322 324 324 326 328 327 325 324 321 320 318 312 308 309 311 310 309 308 307 306 305 304 304 303 302 302 301 301 301 300 300 299 299 299 299 300 300 300 300 300 300 300 301 301 300 300 299 299 299 298
315 316 317 316 316 319 319 317 317 317 315 313 314 317 318 317 317 318 317 315 315 315 315 314 314 313 314 317 319 319 319 318 317 318 318 317 320 327 328 327 327 326 325 324 324 324 319 310 307 309 310 310 309 308 306 305 304 303 302 302 301 301 300 300 300 299 299 298 298 298 298 299 299 299 299 298 299 300 300 300 299 299 298 298 297 296
315 315 315 316 319 320 318 316 316 317 316 316 316 317 317 316 317 319 318 316 314 315 315 315 314 313 313 315 317 321 321 318 316 317 318 317 321 327 328 326 325 325 323 320 319 320 315 309 308 310 310 309 309 307 305 304 303 302 301 301 300 300 299 299 299 298 298 297 297 297 297 298 298 298 298 298 299 299 299 299 298 298 297 296 294 293
314 314 315 317 318 319 317 316 315 315 317 318 316 315 315 315 316 317 317 317 315 314 316 315 314 314 314 313 317 321 320 316 315 317 317 318 322 325 325 323 320 319 317 312 311 313 312 311 311 311 309 308 307 306 305 303 302 302 300 299 299 299 298 298 297 297 296 296 296 296 296 297 298 298 298 298 299 299 298 297 297 295 294 293 292 291
315 314 315 315 317 318 317 316 315 315 315 314 313 315 315 315 316 317 317 316 314 314 315 314 314 314 313 315 321 320 315 315 316 315 315 318 322 323 323 321 314 310 309 308 308 309 311 311 311 310 308 307 305 304 304 303 302 302 300 299 298 297 297 297 296 296 295 295 295 295 296 297 298 298 298 298 298 297 296 295 294 293 292 291 290 290
316 316 314 314 317 318 316 316 316 315 314 313 314 317 319 319 319 318 318 316 314 313 314 315 315 314 313 319 323 318 314 317 316 312 314 318 319 317 316 315 311 305 304 306 306 307 308 309 308 308 306 305 303 302 302 302 301 300 298 297 297 296 296 295 295 295 294 294 294 295 295 296 297 298 298 297 296 295 294 292 291 291 290 290 289 289
314 316 316 314 315 317 316 315 314 313 314 318 321 320 319 319 319 319 318 316 313 313 315 315 314 314 316 322 323 317 316 317 313 313 318 319 316 314 310 311 312 307 302 303 304 304 305 306 305 304 303 302 302 301 300 300 299 298 296 295 295 295 294 294 294 293 294 293 294 294 295 296 297 297 296 295 294 292 291 291 290 290 289 289 289 289
313 314 316 315 314 316 316 315 314 314 317 322 323 320 317 316 316 316 315 314 315 316 316 314 313 315 319 323 319 315 314 313 312 318 322 318 316 315 306 301 302 302 300 301 302 302 302 302 302 302 301 300 300 299 299 299 297 296 295 294 293 293 292 292 292 292 292 293 293 294 294 294 295 294 293 293 292 291 290 290 289 289 289 288 288 288
314 314 314 315 314 314 314 315 314 315 320 323 318 314 315 315 314 314 315 318 323 322 317 314 315 316 320 321 317 314 313 313 317 323 323 320 322 322 309 299 298 299 298 298 299 300 300 299 298 298 297 297 298 297 297 297 296 294 293 292 291 290 290 291 291 291 292 292 292 292 292 292 292 292 291 291 290 290 289 289 289 288 288 287 287 287
313 313 313 314 314 313 314 315 314 314 317 319 315 313 314 314 314 317 319 320 324 326 322 318 316 316 319 318 316 316 314 314 320 324 323 323 326 320 309 303 302 299 296 296 297 298 298 296 295 294 294 294 295 296 296 296 294 293 292 290 288 288 289 289 290 290 290 290 291 290 290 290 290 290 290 290 290 289 289 288 288 287 287 287 286 286
312 312 313 313 312 313 314 314 315 317 316 313 313 314 314 313 316 322 322 319 320 324 325 322 319 320 321 319 317 318 316 315 319 322 319 319 320 315 307 301 298 294 293 294 295 296 296 295 292 291 291 292 293 294 294 295 293 291 289 287 286 287 288 288 289 289 289 289 289 289 289 289 289 289 289 289 289 289 288 288 287 286 286 286 286 286
312 310 313 314 311 314 317 315 318 322 316 311 314 318 316 314 318 322 323 322 324 324 323 324 324 323 321 319 318 318 317 317 319 321 318 316 315 311 306 299 294 293 293 293 293 294 294 293 291 290 289 290 291 292 292 293 293 289 286 285 285 286 287 287 287 288 288 288 288 289 289 289 289 289 289 288 288 288 287 287 286 286 285 285 285 285
316 313 314 315 313 314 318 318 319 320 315 313 319 322 320 319 320 320 321 323 325 322 320 323 326 323 319 317 317 318 318 319 320 318 315 314 311 305 301 297 293 291 292 291 291 292 292 291 290 288 287 287 288 289 290 290 291 289 285 284 285 286 286 287 287 287 287 287 288 288 288 288 288 288 288 287 287 287 286 286 286 285 285 285 284 284
318 317 315 316 316 314 314 316 317 317 315 316 318 317 317 317 317 317 319 323 324 320 316 317 321 321 317 316 318 318 316 316 318 316 312 311 309 305 302 299 293 290 290 290 290 290 290 289 287 285 284 284 284 286 287 287 287 287 286 285 285 285 286 286 287 287 287 287 287 287 287 288 287 287 286 286 286 286 285 285 285 285 284 284 284 283
317 315 315 316 316 314 314 316 317 316 316 317 317 316 317 318 318 316 317 319 318 314 311 312 314 314 314 314 315 315 313 313 315 315 312 308 305 303 301 297 291 289 289 290 289 289 289 287 285 284 282 281 281 283 284 284 284 285 285 284 284 284 285 286 286 287 287 287 287 286 286 286 286 286 286 285 285 285 284 284 284 284 283 283 283 283
314 314 317 318 317 314 315 317 316 315 316 317 317 317 318 319 321 319 313 311 311 311 310 310 308 307 309 311 310 310 312 312 311 311 310 306 303 300 297 292 289 289 289 288 288 288 288 286 284 283 280 278 279 281 282 282 282 282 282 282 283 283 284 285 286 286 286 285 285 285 285 285 285 285 285 284 284 284 283 283 283 283 283 282 282 282
313 315 317 317 315 314 315 316 315 315 316 318 318 317 315 315 317 316 311 309 310 310 310 310 309 306 305 305 305 307 311 310 307 307 308 304 300 297 293 289 288 288 287 287 287 287 286 285 283 282 279 277 278 279 280 280 280 280 280 281 281 282 284 285 285 284 284 284 284 284 284 284 284 284 284 284 283 283 282 282 282 282 282 282 281 281
314 315 315 316 315 314 314 317 317 316 316 317 317 315 313 311 313 314 312 310 309 307 306 309 310 308 305 302 300 302 306 306 304 304 305 301 295 293 290 289 288 286 286 286 286 285 284 283 282 280 278 276 277 278 278 278 278 279 280 281 281 282 283 284 285 284 283 283 284 284 284 284 284 284 283 283 283 283 282 281 281 280 280 280 280 280
Wind_Speed
4 4 4 6 6 7 9 8 8 6 2 3 7 8 7 5 2 1 3 1 2 3 5 7 6 8 8 7 8 8 8 8 8 8 7 7 6 6 7 7 8 8 7 12 19 23 26 26 26 26 25 25 25 26 26 26 26 27 27 27 28 28 27 27 27 26 26 27 25 24 24 23 22 21 21 21 21 21 21 21 23 25 25 25 24 24
5 5 6 8 8 7 9 10 10 6 3 4 3 6 6 4 2 2 3 2 1 1 4 7 8 9 8 8 7 8 9 9 9 9 9 9 8 6 7 8 8 7 6 9 13 18 24 25 26 26 26 26 27 27 27 28 28 28 29 29 29 29 29 28 28 29 29 29 28 26 26 25 22 21 21 20 19 20 21 20 21 23 25 27 26 25
5 6 6 9 9 3 3 9 10 6 3 3 1 3 3 2 3 3 3 2 2 1 2 3 5 8 9 8 7 7 9 9 10 11 10 10 9 8 8 8 8 7 6 8 9 13 20 24 25 26 26 28 29 29 29 29 29 29 29 30 29 29 30 30 29 29 29 28 26 24 23 23 22 20 20 17 14 14 16 18 18 18 20 21 21 20
4 6 6 7 7 3 1 4 8 4 2 2 1 1 3 3 4 1 1 2 1 1 1 4 2 6 6 6 7 8 10 8 9 12 11 10 10 10 10 9 9 10 9 9 9 10 16 21 23 24 26 27 28 28 29 30 30 30 30 31 30 30 30 31 29 28 27 25 23 21 19 19 21 21 20 19 17 15 14 15 16 16 17 18 19 19
6 4 3 5 8 7 3 2 5 5 3 3 3 2 2 4 5 2 3 4 3 1 1 3 5 5 6 7 9 9 10 10 9 11 11 10 10 10 10 10 10 11 11 10 10 10 13 18 22 25 26 27 27 28 29 31 31 32 32 31 31 30 30 31 31 28 26 25 24 21 18 17 18 17 18 20 22 21 18 15 15 16 16 16 18 20
6 3 1 6 9 8 7 4 5 6 3 3 5 5 0 2 6 7 5 5 3 2 2 2 1 6 6 10 11 8 9 11 9 10 12 10 9 8 8 8 8 8 9 9 10 11 13 18 21 24 25 26 27 29 30 31 32 31 31 31 30 30 30 30 31 30 28 27 27 26 24 22 19 17 18 21 22 22 22 19 15 14 14 14 14 16
2 0 1 7 9 8 7 5 5 6 4 3 5 4 3 5 8 9 6 4 3 2 2 3 4 5 3 5 8 7 8 10 9 9 10 9 8 8 8 8 8 8 7 6 7 9 12 16 19 20 24 27 28 30 29 28 29 29 28 29 30 29 29 29 30 31 30 29 29 29 28 26 22 20 18 18 18 17 18 19 18 16 13 13 13 14
3 3 2 5 6 6 6 4 6 7 5 3 3 1 5 8 7 8 7 3 2 1 2 1 2 2 4 5 4 5 6 6 6 7 8 8 8 9 9 10 10 9 8 7 7 7 9 14 18 21 25 27 27 27 27 26 27 27 27 28 29 29 29 29 28 30 31 30 30 29 27 25 23 21 17 16 16 15 14 17 19 20 18 17 16 17
3 5 6 8 6 4 5 3 6 9 4 3 2 1 3 5 6 6 6 3 1 3 1 4 2 1 5 5 2 4 5 5 7 9 10 11 11 10 10 10 10 9 9 8 9 8 9 13 18 20 22 24 23 23 24 26 26 26 25 26 28 28 28 28 28 30 31 29 28 28 26 24 22 20 17 15 15 15 15 15 15 15 17 18 18 18
0 5 6 8 7 5 5 1 2 7 5 4 3 4 5 4 4 4 4 4 3 1 4 6 5 2 5 5 4 3 3 6 7 8 10 10 11 10 8 8 7 6 6 6 6 7 9 13 15 16 17 19 20 20 22 24 25 25 25 26 28 28 28 29 29 30 31 28 27 27 25 23 22 20 17 15 14 14 14 14 15 15 15 16 17 18
0 1 0 3 3 3 5 3 3 2 5 6 5 5 6 4 4 3 2 4 3 2 4 5 6 5 3 4 5 4 5 7 7 7 5 4 6 6 5 6 6 5 5 5 4 4 7 9 12 13 14 16 17 18 20 22 24 25 25 27 28 27 27 29 29 30 30 28 27 27 25 24 23 23 21 19 18 17 16 16 16 17 16 17 17 17
2 2 0 1 1 1 5 4 5 3 4 5 4 5 4 3 4 3 2 3 2 3 3 3 1 2 3 5 3 2 3 5 5 5 3 5 5 5 5 5 5 4 4 5 5 5 6 7 9 11 14 16 17 18 20 21 23 25 26 27 27 26 26 28 28 30 30 28 27 26 24 24 24 24 24 23 21 19 19 18 16 15 15 15 13 12
3 2 2 2 2 2 4 4 4 4 2 2 4 6 4 1 2 1 1 2 3 3 3 2 3 1 5 6 7 8 6 5 5 5 6 7 6 6 6 5 5 4 3 4 6 6 6 6 8 12 14 16 18 19 20 22 23 24 25 27 27 25 26 27 28 29 30 29 28 25 24 25 24 23 23 22 20 19 18 17 16 15 15 13 12 11
2 0 2 2 1 2 3 4 4 1 2 3 5 5 5 4 2 3 3 2 3 2 3 3 1 2 4 5 10 14 12 7 4 3 5 7 6 7 7 6 6 6 5 5 5 6 6 7 10 13 15 17 19 19 20 22 24 24 25 27 27 25 25 28 28 28 28 28 27 25 24 25 24 22 21 19 18 17 16 14 14 14 14 13 13 12
5 2 2 3 2 3 4 3 4 6 4 4 4 5 5 5 3 4 4 3 4 1 2 3 1 3 3 3 7 9 7 4 2 2 3 3 3 5 5 5 5 6 6 5 5 6 6 9 13 15 15 17 19 20 21 22 23 24 25 26 27 26 26 28 28 27 27 27 26 25 23 23 24 22 19 17 15 16 15 14 13 13 14 14 13 12
8 3 1 1 2 3 4 2 1 6 4 3 2 4 3 4 4 3 2 3 4 2 0 2 2 4 4 5 7 5 4 4 3 3 3 4 4 5 4 5 5 6 6 6 6 6 6 9 14 15 16 17 19 20 21 22 23 24 25 26 26 27 26 27 28 27 26 26 26 26 24 23 23 22 20 18 16 16 17 17 16 15 15 15 14 14
7 2 2 1 2 1 1 1 1 3 3 2 2 4 3 2 6 4 0 0 3 0 2 3 3 5 3 6 10 8 7 5 4 5 5 6 6 6 6 6 6 6 6 6 6 6 6 9 12 14 16 17 19 21 21 22 23 24 25 26 26 26 25 26 27 27 26 25 25 26 24 23 22 22 21 20 19 18 18 18 17 16 16 16 15 15
6 2 2 1 1 1 1 1 2 2 2 4 3 5 3 2 3 3 1 1 2 2 2 4 5 4 2 4 5 4 7 6 6 7 7 6 6 7 7 6 7 6 6 6 6 6 7 9 11 13 14 16 18 20 20 21 22 23 24 25 26 26 26 26 26 26 25 25 25 25 25 24 22 21 20 19 19 18 17 16 15 15 15 14 14 15
6 4 2 3 1 1 1 1 2 2 2 3 3 2 3 1 1 1 2 2 2 3 3 3 6 4 4 4 3 2 7 8 7 7 7 7 7 7 6 6 6 6 6 6 6 6 6 9 11 13 14 15 17 18 20 21 21 22 23 23 26 27 26 26 25 24 24 24 25 25 24 24 22 21 20 19 17 16 15 14 14 14 14 13 13 13
4 4 1 3 2 1 1 1 4 2 2 1 2 2 2 2 3 3 3 3 3 3 4 3 3 4 5 6 5 7 8 8 7 7 7 8 8 7 6 6 6 6 6 6 6 6 6 9 12 14 14 16 17 18 20 21 22 23 22 21 24 25 24 25 24 24 24 24 24 24 23 23 22 20 19 18 17 15 14 13 13 13 12 11 11 10
3 3 3 0 2 1 1 2 5 6 4 2 2 4 2 1 2 1 2 2 3 3 3 3 3 5 5 5 9 10 8 7 6 4 5 6 6 7 6 7 6 7 7 6 6 6 6 9 12 14 14 15 16 17 19 21 21 22 22 21 23 24 24 25 24 24 24 24 23 24 23 22 21 19 18 17 16 15 13 13 12 12 11 10 10 8
1 3 5 3 1 2 1 2 1 2 5 5 5 7 7 5 4 3 3 3 3 2 3 3 4 6 5 2 5 7 6 5 5 5 4 3 3 4 5 7 7 7 7 6 6 6 6 9 12 14 14 15 15 15 17 19 20 21 22 21 22 24 25 25 25 24 24 24 23 22 22 21 20 19 18 17 16 14 13 13 12 12 11 10 9 7
2 5 5 3 2 2 2 2 1 2 1 1 3 5 6 6 5 5 5 4 3 2 1 2 3 6 5 2 1 2 3 3 1 2 3 3 1 3 3 5 6 6 6 6 6 6 7 10 13 13 14 14 15 15 16 18 19 21 22 22 22 24 24 25 25 24 24 23 22 21 20 20 20 19 18 16 15 14 13 13 12 11 10 9 8 7
3 5 4 3 2 1 3 2 2 2 1 1 4 4 5 7 6 5 4 4 4 3 2 2 4 6 6 4 0 1 1 0 3 2 4 5 3 2 3 4 5 5 5 6 6 5 7 10 12 12 13 14 15 16 17 18 19 21 22 22 22 23 24 24 25 24 23 23 22 21 21 20 20 19 17 16 15 15 14 13 12 10 9 9 7 5
3 3 5 5 3 2 3 1 2 4 4 3 3 3 3 4 6 4 1 2 2 5 6 5 5 7 5 2 2 3 4 4 6 5 5 5 4 3 4 4 5 4 5 6 6 6 6 7 9 10 13 14 15 17 18 19 20 20 22 22 23 23 23 24 24 24 23 22 22 21 21 21 20 19 18 17 16 15 14 13 11 10 9 8 6 5
5 5 5 6 6 6 6 7 5 4 4 0 1 5 6 6 9 6 2 2 2 5 6 5 6 9 5 2 2 4 4 5 7 6 6 6 6 5 5 5 6 5 6 6 6 6 6 6 7 10 13 15 16 18 19 20 20 21 22 22 22 23 23 23 23 23 23 22 22 21 21 21 20 19 18 17 16 15 14 12 11 10 9 8 6 6
4 4 7 9 10 11 11 7 4 8 7 6 8 10 11 10 10 8 4 4 5 4 4 5 8 12 11 3 3 5 6 7 7 6 6 6 6 6 5 5 5 5 6 6 6 6 6 7 7 10 13 14 15 17 18 19 20 21 21 22 22 22 23 23 23 23 23 22 22 21 21 20 20 20 19 17 16 15 14 13 12 11 9 8 7 6
4 5 9 12 13 12 6 3 9 11 10 13 13 11 11 10 9 8 6 7 6 3 5 9 9 14 17 9 7 8 8 7 8 7 8 7 6 6 5 5 6 6 6 6 7 7 8 8 8 9 12 14 14 15 16 17 19 19 21 21 22 22 23 23 23 23 22 22 22 21 21 21 20 20 18 17 16 16 15 14 12 11 9 8 7 6
4 6 8 10 12 10 3 4 10 11 9 11 13 12 13 12 11 11 12 12 9 7 10 13 13 17 18 11 9 9 8 8 9 8 6 5 6 6 6 6 6 6 7 7 8 9 10 10 8 8 11 13 14 15 16 17 18 19 20 21 21 21 22 23 23 23 22 22 22 22 22 21 20 19 18 18 17 16 15 14 12 10 9 8 8 8
3 4 5 6 8 9 5 5 8 10 8 9 12 14 14 14 15 16 16 17 17 14 15 17 16 18 17 12 10 9 9 8 6 4 5 6 7 7 7 7 7 7 8 9 9 10 10 9 8 8 11 13 16 18 20 20 20 20 20 21 21 21 21 22 22 23 23 23 23 23 22 21 20 20 19 18 18 17 15 14 12 11 10 10 11 10
1 3 3 5 4 5 4 6 8 8 8 8 10 11 13 14 15 17 17 17 16 15 17 17 14 16 16 11 8 7 7 6 4 6 7 7 7 8 7 7 8 8 8 9 10 10 9 8 7 8 11 16 20 23 23 22 21 21 20 20 20 20 20 21 22 23 24 24 23 23 23 22 21 20 20 19 17 17 16 14 13 13 13 13 13 13
2 2 1 5 4 4 6 8 6 5 4 3 7 10 14 15 15 16 16 14 13 13 15 13 11 16 15 7 6 8 7 7 7 8 8 6 7 8 8 8 8 8 8 9 9 9 9 9 9 10 14 20 24 25 24 23 22 21 20 20 19 19 19 20 21 23 23 23 23 23 23 23 22 21 20 19 18 17 17 16 15 15 16 16 15 14
6 5 2 5 5 5 7 10 7 7 4 4 9 14 17 17 16 15 13 13 13 12 10 10 14 17 10 3 6 10 6 7 9 8 7 7 8 8 8 8 7 8 9 9 9 9 9 9 11 15 20 22 24 25 24 24 23 22 21 21 20 20 20 20 21 22 22 22 23 24 24 23 23 22 20 19 19 19 18 18 17 17 17 16 16 15
6 6 4 5 5 4 4 8 8 5 6 11 11 13 16 17 16 14 13 15 16 13 11 12 15 14 6 4 9 10 6 8 9 9 9 8 7 7 6 7 7 8 9 9 9 10 9 11 15 20 22 21 21 22 22 22 22 22 21 21 20 20 21 21 21 21 21 21 21 22 23 23 23 22 21 21 20 20 19 19 19 18 17 16 16 15
6 6 4 4 3 1 3 7 6 8 12 10 5 8 13 15 15 15 17 19 18 16 15 16 16 14 10 8 9 8 8 9 8 8 9 7 7 7 6 7 8 9 9 9 9 10 10 13 17 18 18 18 20 21 21 21 22 22 21 21 21 21 21 22 22 22 22 22 21 21 22 23 23 22 22 21 21 20 20 19 19 18 17 16 15 14
8 6 3 3 3 2 3 5 7 7 6 2 3 8 11 11 11 12 14 16 15 13 13 15 19 20 17 13 6 3 3 3 3 6 6 4 6 7 8 8 9 10 11 10 10 11 12 13 15 16 17 18 20 22 23 22 23 22 21 21 22 22 22 22 23 23 23 23 22 22 22 22 23 23 22 22 21 21 20 19 19 18 17 16 15 14
8 7 4 3 4 4 3 5 4 4 5 2 7 8 8 9 10 10 10 13 13 12 13 16 20 21 18 11 4 1 2 3 5 6 5 5 5 6 9 11 12 11 9 6 6 7 8 11 14 18 20 21 22 24 24 24 24 24 23 22 23 23 23 23 23 23 23 23 22 22 22 22 23 23 23 22 22 21 20 19 18 17 16 15 14 14
5 7 6 5 4 4 4 3 2 2 8 11 8 5 7 9 9 9 7 10 12 14 16 16 18 20 15 7 4 3 3 2 7 9 5 7 7 9 11 13 11 7 2 3 4 4 5 9 13 18 21 22 23 24 25 26 26 25 25 25 25 25 25 24 24 24 23 23 22 22 22 22 23 24 23 23 22 21 20 19 18 16 16 15 15 14
2 3 7 6 4 4 6 5 5 6 11 11 5 5 7 9 9 10 6 11 15 14 13 13 16 19 12 6 7 6 5 2 10 9 6 10 12 13 13 12 7 0 3 4 4 5 7 9 12 16 19 21 22 23 24 26 26 26 26 26 27 27 26 25 25 24 24 23 23 23 23 23 23 23 23 23 21 20 19 18 17 16 16 15 15 14
1 1 5 7 6 6 6 5 5 5 8 7 7 8 9 11 13 11 5 13 11 9 11 13 16 15 8 8 8 7 7 8 12 8 6 12 11 6 4 4 1 5 6 5 5 7 9 11 14 17 19 20 22 23 24 25 25 24 23 24 24 24 23 24 25 25 24 24 23 23 23 23 22 22 22 22 21 20 18 17 17 16 15 15 14 13
2 1 3 7 8 7 7 7 5 4 6 6 8 9 11 13 11 8 10 9 4 10 12 14 13 9 8 10 8 7 9 11 8 2 4 7 6 2 4 5 7 8 7 7 7 9 11 12 13 15 16 18 19 21 23 24 23 21 22 23 22 21 21 23 24 24 24 24 24 24 23 22 22 21 21 20 19 19 18 17 16 16 15 14 13 13
4 3 3 5 6 5 5 4 3 6 7 6 7 8 12 11 6 9 7 1 6 10 10 10 10 9 9 10 9 9 11 8 4 5 5 7 7 4 4 7 9 9 8 8 8 9 12 13 12 13 13 15 17 19 22 23 22 21 22 22 20 20 22 23 24 24 25 24 24 24 23 22 21 21 20 19 18 18 18 17 16 15 14 14 13 12
7 6 4 5 6 4 5 6 6 8 5 10 10 4 6 8 6 6 4 2 2 6 7 7 8 8 9 9 10 10 10 6 5 7 6 6 7 6 5 6 7 8 8 9 9 10 12 14 13 13 13 14 16 18 21 23 22 22 22 21 20 21 23 23 24 24 25 24 24 23 23 22 21 20 19 18 18 18 17 17 15 14 14 13 12 12
7 8 6 6 7 5 6 8 7 5 4 13 12 7 7 7 4 4 6 3 1 3 6 6 6 6 9 10 10 10 10 7 5 7 6 5 5 6 6 6 7 9 9 9 10 11 13 15 15 14 13 13 15 17 20 22 23 23 22 21 21 23 24 24 24 24 24 24 24 23 22 21 20 19 19 18 17 17 17 16 15 14 13 12 11 11
10 10 7 5 6 6 6 7 7 5 6 8 7 4 5 7 5 4 6 5 2 4 5 5 6 6 7 8 9 8 8 6 7 7 7 6 6 6 6 6 7 9 9 10 11 12 14 16 17 16 14 13 14 16 18 21 24 24 22 21 22 24 24 24 24 25 25 24 24 23 22 21 20 19 18 18 17 16 16 16 14 13 12 11 10 10
6 8 7 5 5 5 5 7 7 5 5 3 2 3 2 3 3 4 5 4 2 4 5 5 6 7 6 6 7 7 6 6 7 7 6 7 6 5 6 6 7 10 11 11 12 13 14 16 17 17 16 13 13 15 16 18 22 23 22 23 24 24 24 25 26 25 25 24 23 22 21 20 20 19 18 17 16 15 15 14 13 12 12 10 10 9
3 6 6 5 5 6 7 9 9 7 4 3 3 3 3 2 2 3 4 3 4 5 5 4 4 6 6 6 7 7 6 6 7 6 5 6 6 6 6 6 7 10 11 12 14 15 17 17 16 16 16 14 12 14 15 17 19 21 22 23 24 24 25 26 26 26 25 24 23 22 21 21 20 19 18 17 16 15 15 14 13 12 11 10 9 9
3 5 5 6 7 6 6 8 7 4 3 4 4 3 2 3 4 3 4 4 5 4 3 3 4 5 4 4 5 6 5 5 7 7 5 5 5 6 5 6 8 10 11 12 15 16 16 16 16 15 15 14 13 14 16 17 18 19 21 23 24 25 25 26 26 26 25 24 23 22 21 20 20 19 18 17 16 15 14 13 12 11 10 9 8 8
3 5 5 5 6 5 5 3 2 2 1 2 5 6 6 5 6 6 4 4 5 4 2 1 2 3 3 2 3 4 4 3 4 6 6 5 5 5 5 7 9 10 11 13 14 15 15 15 16 16 15 14 14 16 17 17 18 19 21 23 23 24 25 25 25 25 24 23 23 22 21 20 19 19 18 17 15 14 13 11 11 10 8 7 6 6
4 5 4 5 6 6 7 4 4 3 3 4 4 6 7 4 5 6 5 4 4 4 3 1 2 3 3 3 3 4 2 2 3 6 6 5 5 6 7 9 10 10 11 13 14 13 14 15 16 17 16 15 16 17 17 17 18 19 20 22 23 23 24 25 24 24 22 22 21 20 20 19 18 17 17 16 15 14 12 11 9 8 7 6 5 5
4 4 5 6 6 5 4 3 3 3 3 1 2 2 5 4 6 6 6 6 6 6 6 5 4 3 2 2 2 3 2 2 4 7 6 5 6 8 10 12 12 12 13 15 15 15 15 16 17 18 17 16 17 17 17 17 17 18 19 21 21 21 22 23 24 23 21 20 20 19 18 18 17 16 16 15 14 13 12 11 10 8 6 5 5 5
Wind_Direction
168 163 191 208 201 195 202 211 228 235 251 227 184 190 215 182 163 67 95 151 165 157 215 218 229 240 239 232 202 184 191 199 198 203 213 211 208 207 199 200 199 202 209 195 193 199 198 197 197 195 195 193 192 194 194 194 195 194 194 197 199 198 196 195 193 196 199 199 201 205 206 210 212 215 222 226 226 224 225 230 234 236 239 241 242 245
174 199 199 201 213 207 195 204 228 247 316 320 183 170 205 187 138 29 83 162 183 129 216 221 235 247 243 243 223 174 176 202 200 193 200 205 207 209 206 208 208 208 202 186 187 189 189 192 194 195 195 192 192 193 194 195 197 197 196 198 201 198 196 196 195 195 198 200 202 204 206 208 210 214 219 224 228 231 233 235 238 239 239 237 238 244
186 213 206 198 216 248 200 198 210 238 284 318 343 136 184 179 119 55 48 133 142 129 254 218 225 251 250 246 242 196 189 202 196 194 198 199 203 207 204 206 209 208 197 185 182 176 177 183 189 193 195 196 197 197 197 198 198 198 198 200 201 200 198 198 197 199 200 202 203 204 206 207 208 212 215 217 221 227 230 232 235 240 241 237 235 239
185 207 211 197 197 201 277 192 183 210 269 241 262 149 180 167 144 168 218 143 105 151 30 5 306 267 266 263 252 228 222 215 195 200 202 196 202 204 201 201 200 199 197 193 188 179 177 180 185 190 193 196 199 199 199 199 199 199 200 201 201 201 201 199 198 199 199 199 198 200 205 209 212 216 218 217 217 217 217 223 234 240 242 238 234 237
183 190 198 179 180 182 178 184 170 178 239 235 224 232 216 172 151 120 150 135 20 13 89 7 323 281 236 233 244 231 226 225 208 204 208 208 206 201 203 205 199 196 193 191 192 186 183 186 190 193 195 196 198 199 199 200 200 201 201 201 200 200 201 201 198 197 196 195 193 193 194 194 201 206 209 211 215 217 215 218 232 240 240 238 238 241
191 196 152 169 180 184 175 189 189 174 208 247 221 210 247 126 128 111 130 130 59 308 236 130 302 284 226 211 230 220 211 220 209 203 211 214 205 197 206 212 208 204 196 189 190 188 186 191 194 196 198 199 201 202 202 203 203 202 202 201 200 199 200 201 200 197 195 194 190 190 188 186 187 189 194 201 208 216 219 220 227 235 240 243 243 242
173 47 120 167 174 177 178 200 199 173 179 231 241 209 124 95 115 126 148 144 126 228 281 124 176 268 279 242 239 205 194 214 207 206 216 213 207 205 211 216 212 209 204 192 184 181 183 186 187 192 198 201 205 206 204 204 204 202 202 201 199 198 199 200 199 197 196 194 193 193 195 195 195 195 198 205 211 217 221 220 220 222 227 238 245 246
115 109 126 150 149 161 173 203 194 169 170 212 283 295 131 125 132 143 154 164 162 143 359 343 185 269 292 282 260 151 163 213 216 221 231 225 218 216 215 217 215 210 204 196 194 191 184 182 184 191 198 203 207 207 203 202 202 201 201 200 198 197 197 198 197 196 196 196 195 196 199 200 202 204 202 205 209 212 215 217 221 225 228 233 242 248
115 157 169 155 145 169 180 199 184 165 170 220 249 4 113 134 142 147 148 154 94 74 306 251 191 276 268 253 225 134 156 219 226 221 227 226 219 218 216 211 208 206 196 188 195 202 200 193 191 193 197 202 205 206 203 202 200 198 197 195 193 194 194 195 195 194 194 195 195 195 197 196 199 204 201 200 205 207 208 211 217 223 226 229 234 239
246 183 175 157 159 175 162 58 209 173 177 203 174 78 58 71 96 124 140 125 87 77 237 224 185 203 276 252 209 181 196 223 229 224 225 220 211 207 202 190 179 175 173 171 176 188 198 201 199 197 197 199 202 204 203 200 197 193 192 190 189 190 192 192 193 192 191 193 194 194 195 192 192 195 193 191 195 198 198 201 208 213 217 223 228 232
264 180 120 141 168 166 130 77 2 152 143 141 129 84 63 49 54 61 104 103 97 248 236 219 190 185 271 260 197 187 215 214 219 233 229 188 171 168 154 146 149 150 154 159 163 160 163 177 186 185 185 187 190 194 195 194 194 192 191 189 187 189 190 191 192 191 190 190 193 195 195 191 187 188 188 188 190 193 194 197 206 213 219 225 231 235
68 72 86 41 279 175 117 80 13 26 111 114 119 112 87 37 41 30 13 94 156 244 248 291 307 168 228 252 222 219 229 206 207 222 199 151 142 135 129 132 137 141 148 157 169 166 145 148 169 172 169 173 177 181 186 188 189 189 188 186 184 185 188 189 190 191 189 189 192 194 192 189 187 187 189 190 190 193 195 198 204 212 218 224 232 235
78 89 139 40 310 226 133 105 38 4 5 98 137 131 120 94 80 102 246 175 208 244 247 299 353 248 232 248 261 268 257 220 211 204 171 159 157 152 155 156 151 150 162 173 174 172 166 162 178 180 172 172 175 178 181 184 184 184 183 182 180 181 185 186 187 189 189 188 188 189 189 187 188 191 191 192 193 194 196 197 202 206 210 217 223 225
104 26 164 108 337 249 166 146 131 169 250 183 160 143 147 149 133 191 199 194 218 260 286 283 310 265 269 259 245 250 249 233 209 190 153 145 159 166 163 161 162 170 183 197 183 170 177 180 186 189 179 175 179 179 179 180 181 181 180 180 179 179 183 184 184 184 186 186 184 186 189 186 186 191 194 193 192 192 198 203 205 203 204 212 219 222
169 209 193 162 176 173 179 185 148 148 165 191 169 140 161 171 161 184 181 186 199 207 320 302 258 192 208 248 238 236 240 221 156 155 135 130 161 153 146 156 174 190 190 190 186 179 186 183 183 186 180 177 180 179 179 178 178 179 178 179 179 177 180 183 183 182 183 182 180 183 188 185 185 190 194 194 189 187 196 203 204 201 201 207 212 216
174 204 263 235 252 170 169 234 122 122 145 220 155 118 178 196 147 138 167 174 155 104 280 240 246 212 205 271 274 244 208 200 215 220 193 214 211 168 177 199 200 209 195 178 184 188 184 176 176 179 176 178 178 176 177 177 178 178 177 179 179 178 180 183 183 182 181 181 179 181 184 184 185 189 191 193 191 190 196 200 202 204 205 208 211 214
167 210 324 308 316 60 139 271 8 112 158 181 131 157 202 168 116 114 232 76 101 141 229 185 252 279 282 290 277 247 226 217 225 243 238 235 221 195 208 214 205 206 186 172 182 179 167 163 168 174 173 174 174 174 176 177 178 178 177 178 178 177 180 182 182 182 180 180 180 180 182 182 185 189 192 193 194 195 199 202 206 210 212 215 217 219
152 115 338 2 30 337 311 40 43 40 127 118 149 191 177 72 79 116 178 18 79 225 242 176 214 260 247 271 290 245 231 231 218 227 240 237 224 215 220 218 208 196 172 170 174 164 162 161 162 167 169 171 172 173 176 177 178 178 178 180 179 178 180 181 180 181 180 181 181 180 180 182 187 191 192 193 197 200 203 206 211 215 217 218 220 223
130 108 338 357 25 271 317 110 117 13 39 124 164 173 112 134 233 134 177 191 161 217 268 224 218 231 201 222 296 238 225 238 225 211 216 222 219 219 223 217 200 172 158 171 169 159 161 162 159 158 159 165 170 172 174 174 176 176 177 181 182 181 181 179 178 179 180 182 183 181 181 184 189 192 192 194 199 204 207 210 214 215 215 218 221 225
116 124 199 342 338 204 354 222 177 169 0 52 93 77 74 166 179 165 192 192 156 196 258 251 228 243 222 210 225 225 219 224 223 208 208 218 217 216 211 200 187 170 172 183 175 166 159 155 158 158 158 160 164 169 171 170 171 172 173 178 180 180 178 177 178 179 180 183 184 182 183 187 191 193 194 197 202 207 210 212 212 210 212 217 220 225
73 103 149 63 337 160 176 236 189 171 170 152 124 141 158 163 124 130 239 195 143 170 231 245 250 258 248 210 206 220 222 210 196 171 191 213 214 215 204 186 183 180 184 188 173 164 154 146 149 154 160 162 162 167 170 170 170 170 171 174 177 178 178 178 180 181 182 184 185 185 185 188 192 193 196 199 203 207 210 210 209 208 210 213 217 224
81 90 123 138 177 180 208 331 13 182 181 174 174 176 180 172 137 141 236 208 159 175 196 209 255 263 256 220 193 209 207 186 163 144 174 216 208 202 195 184 187 185 185 185 168 157 149 142 144 151 160 166 167 167 170 173 173 172 172 174 177 180 181 181 182 184 186 186 185 187 188 189 192 194 197 199 201 205 207 206 206 208 210 212 218 228
89 93 106 124 164 191 277 328 346 290 238 176 219 195 176 176 162 168 201 199 184 213 139 151 264 269 261 262 141 167 155 135 103 134 186 238 219 165 167 167 176 182 180 171 155 145 142 146 152 157 163 169 173 173 173 176 178 178 178 178 180 182 184 185 186 187 188 187 186 187 189 191 193 195 197 198 200 202 204 205 206 206 208 211 218 224
89 101 107 83 56 335 302 288 306 300 236 218 245 215 177 191 187 170 180 166 165 191 152 167 252 262 265 267 2 358 322 263 304 272 214 254 281 184 164 148 153 166 163 147 135 128 132 145 155 162 169 175 178 180 180 180 182 183 183 183 184 185 187 188 187 187 188 186 185 188 192 194 194 195 196 197 197 199 201 204 204 201 201 204 207 209
152 141 122 109 108 9 349 309 278 249 211 206 222 185 163 169 149 128 115 111 154 208 176 172 245 253 263 322 4 319 304 286 277 251 211 238 258 220 196 175 159 147 134 131 130 133 141 154 167 174 179 183 184 185 185 185 187 188 188 189 188 188 188 188 188 188 187 185 186 190 194 196 195 194 194 194 195 196 198 199 196 192 191 190 190 193
170 165 149 152 168 180 193 205 212 197 179 174 144 164 171 164 153 161 176 131 207 228 179 171 244 253 253 32 5 274 265 267 264 237 205 219 228 218 203 187 179 161 147 148 150 159 173 181 187 187 188 190 190 190 190 190 191 192 192 192 191 190 189 189 189 189 188 188 190 193 196 196 193 191 192 193 192 193 194 192 187 183 180 176 173 176
146 178 186 190 197 200 204 202 133 113 138 192 201 184 185 187 175 168 155 170 203 214 195 213 242 257 258 219 191 239 231 237 247 224 209 220 223 222 201 174 171 171 170 170 170 178 190 196 202 201 197 195 195 195 195 194 194 194 194 193 192 194 193 191 191 189 188 189 191 194 195 193 191 190 190 190 188 188 187 183 178 173 168 164 162 163
127 199 201 202 218 222 213 148 128 136 168 195 197 188 188 191 176 165 181 203 197 181 236 238 232 251 257 233 203 224 222 231 243 227 219 215 206 206 179 139 140 164 178 182 186 195 203 208 213 206 199 195 193 195 196 196 197 197 196 194 193 195 196 193 190 188 187 188 190 192 192 190 189 188 186 185 183 182 178 175 171 165 160 159 160 161
137 205 205 200 226 236 220 139 152 165 185 192 191 190 189 187 179 182 201 207 193 192 233 235 226 240 253 243 222 217 205 219 231 220 205 180 166 166 155 150 158 173 187 197 202 208 211 214 214 200 195 191 188 191 194 196 199 198 198 197 196 197 197 194 190 187 186 187 188 189 188 187 186 184 182 180 177 175 172 169 165 159 158 161 161 160
136 202 196 177 224 247 231 189 180 179 187 193 196 195 190 188 189 195 206 210 204 207 224 231 234 245 251 244 232 217 204 215 214 165 153 157 158 154 156 173 188 194 204 211 215 219 219 218 210 192 189 189 191 195 196 197 199 198 198 199 197 197 196 193 190 187 185 185 185 186 185 183 181 178 177 175 172 171 169 166 162 158 158 160 160 156
156 202 169 146 204 250 211 191 192 178 179 197 203 199 192 192 199 207 212 214 210 214 226 234 244 254 252 239 232 225 207 196 156 157 189 190 167 158 165 185 199 204 214 220 222 226 225 219 204 188 190 197 200 201 200 199 198 197 197 198 197 196 194 192 189 185 184 183 183 183 181 179 176 174 172 171 170 170 167 161 158 158 159 157 155 152
166 201 104 126 177 237 194 180 172 123 114 200 212 202 197 195 202 211 214 215 208 211 228 236 241 250 248 226 234 243 205 180 186 194 207 204 172 167 179 195 206 212 219 225 226 226 225 217 204 198 203 206 206 204 201 199 195 193 194 194 194 193 190 188 185 182 182 182 181 179 177 174 172 171 171 170 170 168 163 158 157 158 158 155 153 152
161 165 161 148 178 235 202 171 147 100 86 243 224 205 200 201 205 211 217 222 213 205 215 222 231 244 244 177 239 252 204 187 211 204 201 209 195 185 186 191 205 219 222 224 222 218 220 218 212 212 213 211 208 206 204 199 193 191 192 191 189 187 183 182 181 180 178 178 178 177 174 173 172 170 170 169 168 165 159 157 157 157 157 155 153 153
167 172 179 162 180 233 189 143 124 132 205 232 221 197 198 203 203 205 216 221 215 210 217 227 239 252 254 192 233 246 212 198 210 207 207 206 186 179 186 193 211 225 228 227 220 214 214 215 217 219 217 214 209 204 202 199 193 190 190 188 185 182 179 178 177 177 176 175 176 175 173 172 171 169 167 165 164 160 156 156 156 155 156 156 155 153
170 174 175 168 175 188 120 117 137 202 226 236 209 180 201 208 199 202 218 222 216 215 223 239 253 260 251 224 222 232 227 216 211 217 220 199 159 156 175 203 221 227 230 228 218 215 215 213 213 212 207 203 199 195 192 192 189 185 184 183 181 178 178 177 176 176 175 175 175 175 174 172 169 166 163 162 160 157 155 156 157 157 158 158 157 156
165 172 175 170 154 118 114 152 189 232 263 275 161 184 202 207 197 204 227 234 227 217 219 235 248 250 247 241 231 239 258 249 249 252 237 193 159 157 175 207 223 226 230 228 220 220 221 217 210 202 194 190 189 187 187 186 184 180 177 179 178 176 177 177 175 175 175 175 175 175 174 172 168 164 161 160 159 156 155 156 158 159 160 160 160 160
163 165 168 184 179 154 159 191 217 310 330 246 204 198 190 189 188 195 226 245 235 216 215 227 238 245 247 244 232 95 45 18 318 279 236 197 197 194 203 218 224 225 228 222 215 220 220 214 208 200 195 189 186 187 187 185 184 179 174 175 176 175 175 175 174 174 174 173 173 173 173 172 169 164 160 159 157 155 156 158 159 160 161 162 163 161
165 165 168 187 195 152 146 187 210 263 258 238 214 173 164 172 170 166 197 248 241 216 215 223 235 246 248 226 169 141 96 33 283 266 211 185 214 226 226 232 236 233 189 131 140 150 170 189 195 194 192 186 185 189 189 186 185 180 175 175 175 174 174 174 173 173 173 171 170 170 171 171 169 164 160 159 158 157 158 159 160 161 162 163 162 157
130 164 164 173 197 172 173 206 196 206 245 244 194 154 166 158 131 123 163 250 246 218 207 217 231 240 236 181 159 153 123 200 260 260 184 177 209 226 229 238 250 226 98 118 137 141 153 168 175 180 184 184 184 187 189 187 184 180 175 174 174 173 172 172 173 173 172 169 169 169 169 168 167 164 161 159 158 159 160 161 161 162 162 162 158 151
109 154 165 179 205 194 186 218 220 225 254 235 173 172 170 141 116 116 191 252 244 187 182 210 228 233 205 157 164 166 164 216 250 257 180 181 203 225 236 243 210 99 110 116 120 138 153 160 164 169 176 182 183 185 186 184 180 177 173 170 170 170 170 170 171 170 168 167 166 166 166 166 165 163 161 160 159 159 161 162 162 160 159 158 152 143
137 197 187 193 208 202 197 218 240 257 251 210 174 168 147 125 123 164 212 239 175 150 181 207 216 211 172 160 173 190 208 226 236 221 138 157 160 93 60 82 93 98 111 122 130 142 147 150 159 165 171 179 181 181 182 180 175 170 167 165 165 165 165 166 166 166 166 165 165 164 163 163 162 161 160 160 160 160 160 159 159 157 155 152 146 136
169 183 198 199 205 212 208 210 258 268 237 177 155 158 144 139 174 207 210 158 118 158 190 203 201 191 172 175 193 211 227 230 168 122 120 127 136 131 98 98 100 99 110 124 135 147 144 139 145 148 155 169 174 175 178 175 167 163 161 160 159 160 163 164 165 166 165 163 161 160 159 159 159 159 159 160 161 160 158 155 155 154 150 146 140 134
169 165 191 202 196 202 202 187 217 253 219 128 119 152 179 183 202 190 158 60 89 164 174 189 204 189 169 188 211 222 232 227 152 147 154 139 140 145 135 128 123 121 128 132 141 154 150 138 135 137 144 158 167 172 176 172 164 160 158 156 156 160 163 165 165 166 163 160 158 157 156 157 157 158 159 159 160 160 157 153 150 148 146 143 139 133
173 173 194 204 190 188 202 202 212 236 164 140 149 187 211 203 187 140 145 159 257 185 165 184 219 200 176 193 213 223 231 221 170 159 161 156 156 149 140 141 136 135 140 142 147 158 155 143 137 136 140 152 162 170 176 174 165 158 156 157 159 163 165 166 166 164 159 157 155 154 155 156 156 157 158 157 158 158 155 151 148 144 142 140 137 133
189 185 181 189 191 187 198 216 220 205 179 172 172 181 198 198 185 133 134 144 201 211 178 179 214 210 189 190 200 214 226 209 178 174 171 170 174 159 146 150 149 148 149 145 148 159 159 150 144 139 137 146 159 166 174 178 171 161 157 160 164 167 167 165 164 161 157 155 154 153 154 154 153 155 156 155 156 156 153 152 149 142 140 138 134 131
188 178 161 166 196 203 219 239 235 213 198 191 94 60 102 186 171 113 108 118 185 196 171 173 194 190 176 172 180 204 217 186 167 170 165 163 169 158 145 144 146 148 149 147 150 156 155 150 146 142 138 139 152 161 167 176 175 167 163 165 167 169 168 165 161 158 154 153 153 152 153 153 152 152 154 153 154 153 152 152 150 144 141 138 133 131
208 181 168 168 176 190 220 235 230 220 203 172 130 70 68 97 97 96 116 150 183 176 163 165 168 160 160 164 171 192 203 167 150 155 159 159 164 165 157 149 148 153 157 158 159 159 157 151 146 144 139 135 144 156 159 164 170 170 168 169 168 168 167 163 160 157 153 152 152 152 153 154 152 152 152 152 152 151 149 149 148 146 142 139 137 136
198 169 172 181 178 189 222 227 214 204 164 139 139 129 136 168 188 182 165 157 155 150 137 120 123 131 150 173 172 177 183 165 156 163 170 168 169 174 172 163 158 157 159 163 164 163 160 155 149 146 142 137 142 152 155 158 164 167 168 168 167 166 165 162 160 157 154 153 153 152 153 154 152 152 152 151 151 150 148 148 148 145 141 142 144 144
148 156 175 180 185 223 261 252 142 91 39 212 199 197 199 195 189 187 173 131 123 131 119 60 63 92 111 132 139 146 176 203 178 163 165 170 171 172 170 162 157 155 156 160 164 164 161 157 152 148 143 142 149 154 155 157 160 163 164 164 163 164 163 160 157 155 153 153 153 153 153 153 152 153 153 151 149 147 145 147 149 146 142 142 145 145
140 166 177 169 183 223 242 218 167 169 237 257 239 218 219 200 145 140 141 137 159 186 180 196 313 2 50 55 69 104 165 230 172 149 157 168 167 162 158 152 147 147 152 155 157 159 158 155 153 150 145 148 156 157 156 157 158 160 163 161 161 164 163 159 155 152 150 152 152 152 153 153 152 153 153 151 150 147 142 143 147 150 151 151 151 150
166 171 165 166 187 221 228 187 156 169 209 284 349 262 219 177 130 133 153 166 187 196 175 175 214 253 309 345 35 90 126 181 155 144 139 138 147 150 152 153 150 148 153 157 156 153 151 151 153 152 149 153 159 159 158 158 157 159 163 163 162 163 163 159 155 151 150 152 153 153 155 156 154 154 154 154 155 153 148 144 144 146 150 156 157 153